Wind_Speed
14 14 15 15 15 15 15 15 16 16 16 15 15 15 15 15 16 17 17 17 18 18 18 18 19 18 18 18 17 17 17 17 17 17 17 16 16 16
16 16 16 16 16 16 16 16 17 16 17 17 17 17 17 17 17 18 19 20 20 20 20 20 20 20 20 19 19 19 19 19 19 18 18 17 16 16
18 18 18 18 18 18 18 19 19 19 19 19 19 19 20 20 20 21 21 21 21 21 22 22 21 21 21 21 21 21 21 20 20 19 19 18 18 17
20 20 20 21 21 21 21 21 22 21 21 21 21 21 22 22 22 23 23 23 23 23 23 23 22 22 22 22 23 22 22 22 21 21 21 20 20 19
23 23 23 23 23 23 23 23 24 24 24 24 23 23 23 23 24 24 23 23 23 23 23 23 23 23 23 24 24 24 23 23 23 22 22 22 21 21
26 26 25 25 25 25 25 26 26 26 26 26 26 25 25 25 25 25 24 24 24 24 24 24 24 24 25 25 26 26 25 25 25 24 23 23 23 22
27 27 27 27 27 28 28 28 28 28 28 28 27 27 27 27 27 26 26 26 26 26 26 26 26 26 26 27 27 27 27 27 26 26 25 25 24 24
29 29 29 29 30 29 29 28 29 29 30 30 29 29 28 29 29 28 28 28 28 28 29 29 29 28 29 29 29 28 28 28 28 28 28 27 26 26
31 31 31 31 32 32 31 31 32 32 32 32 31 32 31 31 31 31 31 31 31 31 31 31 31 30 30 30 30 30 30 29 29 29 29 29 28 28
32 32 32 33 33 34 34 34 33 33 33 33 33 34 34 33 33 33 33 33 33 33 33 32 32 32 31 31 30 30 30 30 29 29 30 30 30 29
34 34 34 35 35 35 35 34 34 34 34 35 35 35 34 35 35 35 35 35 35 35 34 33 33 33 32 31 31 31 31 31 31 31 31 31 31 31
36 35 36 36 36 36 36 35 35 35 36 36 36 36 36 36 36 36 36 36 36 35 34 34 33 33 32 32 32 32 31 31 31 31 32 32 32 32
37 35 36 37 37 37 38 38 37 37 38 38 38 38 37 37 37 37 36 37 36 35 34 34 34 34 33 32 32 32 32 32 32 32 32 32 33 33
37 37 37 37 38 38 38 39 39 39 39 39 38 38 38 37 37 37 37 36 36 35 34 35 34 34 34 33 33 33 33 33 32 32 32 32 32 32
38 38 38 38 38 37 38 38 39 39 39 39 38 38 38 38 36 36 36 36 36 36 35 35 35 34 34 34 34 34 34 34 33 33 34 34 33 33
38 37 38 37 38 38 38 38 37 37 38 38 37 36 37 37 36 35 36 36 36 35 35 35 34 34 34 33 34 34 34 34 33 33 33 34 34 34
38 38 38 38 38 37 36 36 36 35 35 36 36 36 36 36 36 36 36 36 36 35 35 34 34 34 34 34 34 34 33 33 33 33 33 33 34 33
38 38 38 38 38 37 36 36 35 35 35 35 35 35 35 35 35 34 35 36 36 35 35 34 33 33 34 33 33 33 33 33 33 33 33 34 33 32
38 38 38 37 36 35 35 35 35 35 35 35 34 34 34 35 35 34 34 35 35 34 34 33 33 34 34 33 33 33 33 32 33 33 33 33 32 32
38 37 36 35 34 34 34 35 35 35 35 35 35 34 34 34 35 35 34 34 34 34 34 34 33 33 33 33 32 31 31 31 31 32 32 32 32 31
36 35 34 34 34 34 34 34 35 35 35 34 34 34 34 35 34 34 33 33 34 34 34 34 33 32 32 32 31 31 30 31 31 31 32 32 31 30
34 34 34 34 34 33 34 34 34 34 34 34 33 34 34 34 34 34 33 33 33 33 34 33 32 32 32 32 30 30 29 30 30 30 29 29 30 29
34 34 34 34 34 34 33 33 33 33 33 33 33 34 34 35 34 34 33 33 32 32 31 31 30 30 31 30 29 28 28 28 29 29 28 28 28 28
Wind_Direction
295 295 294 293 293 296 298 300 300 299 300 299 301 297 294 293 291 291 289 287 287 289 290 292 293 292 292 293 294 294 295 293 291 290 289 289 287 285
292 293 291 291 290 292 295 298 299 300 302 300 298 296 295 294 293 292 290 290 290 287 287 289 290 291 290 290 291 291 292 291 290 288 287 288 287 286
292 292 292 290 288 288 291 294 295 296 298 297 295 294 294 293 294 295 294 291 290 287 285 285 286 286 288 288 289 289 288 288 288 287 286 285 284 284
288 289 288 287 287 286 287 289 291 292 293 294 293 293 292 291 292 293 295 291 287 286 285 284 284 284 286 287 287 287 284 284 284 284 284 284 283 282
288 287 286 284 285 285 285 286 287 288 290 291 292 292 293 293 292 292 293 290 288 288 286 283 283 283 285 285 285 284 282 281 281 281 281 281 281 280
287 286 286 283 283 284 284 285 286 288 288 289 291 292 291 292 292 292 291 289 289 289 288 286 285 285 287 285 284 282 281 279 278 279 280 279 279 278
288 287 285 284 283 283 283 283 285 287 287 288 289 289 290 290 291 291 288 286 287 288 287 286 286 286 286 287 286 283 281 280 278 277 278 278 278 278
286 285 284 283 282 283 282 282 283 285 287 287 287 287 287 288 288 288 287 286 286 287 287 287 286 287 286 286 286 284 283 281 278 277 277 276 275 276
282 282 282 283 283 282 282 281 280 282 284 284 285 285 285 285 285 285 285 285 285 286 287 287 286 285 285 286 286 284 282 281 280 278 275 275 274 273
281 281 282 282 284 283 282 282 281 280 281 283 284 283 283 283 284 284 284 285 285 286 286 286 285 284 284 284 284 284 282 281 279 278 276 274 274 273
281 281 282 284 284 284 283 282 281 280 281 283 284 284 283 282 282 282 283 284 286 285 285 285 284 283 283 282 283 282 281 281 280 279 278 276 275 274
283 283 283 284 285 283 283 281 280 280 281 282 282 283 282 282 282 282 282 283 284 284 283 282 282 282 281 281 282 282 282 281 280 280 279 278 277 275
283 282 282 283 284 283 282 281 280 280 280 280 280 281 282 282 282 283 283 283 283 282 281 280 280 280 280 279 279 281 281 283 283 282 280 278 278 276
282 282 281 281 282 283 283 282 281 279 279 279 280 281 282 282 281 281 281 282 282 281 280 281 281 280 279 278 277 278 280 282 282 282 281 279 279 276
283 282 282 282 282 283 285 284 282 280 279 279 280 281 281 282 281 280 279 279 278 279 279 279 281 280 279 278 278 278 278 279 277 279 280 280 279 277
283 283 283 282 283 285 286 285 284 282 281 280 280 280 280 281 279 280 280 280 279 278 279 279 279 280 279 278 279 280 279 279 278 279 279 280 279 278
283 283 282 282 284 285 285 284 282 281 282 281 281 280 280 280 279 279 280 280 279 278 278 278 278 279 280 280 279 279 279 279 279 280 279 279 278 276
282 282 282 283 283 283 283 284 284 284 283 283 283 283 282 280 280 280 280 280 280 278 277 276 276 277 279 280 280 280 279 278 278 278 278 280 279 276
281 282 282 283 283 282 282 283 284 284 283 282 282 283 282 281 280 280 280 281 280 278 276 276 277 277 278 279 280 279 279 278 277 278 280 280 278 277
281 281 281 282 282 281 281 282 283 283 283 282 282 282 282 282 281 280 280 281 281 278 277 278 278 278 278 279 279 279 278 278 278 279 279 278 278 277
279 279 280 281 281 281 282 282 282 282 282 282 281 281 282 282 281 280 279 279 279 278 276 276 277 277 277 277 278 278 277 278 278 278 278 277 276 276
277 278 279 280 281 281 282 282 282 282 282 281 281 281 282 281 281 281 279 278 278 278 278 276 275 274 274 274 276 277 276 275 275 277 277 276 276 274
276 277 278 279 280 281 282 282 282 282 282 281 282 281 280 280 280 280 278 277 276 277 278 275 274 274 273 274 276 275 274 273 273 274 274 276 277 276
Height
5886 5886 5885 5885 5884 5884 5883 5882 5881 5880 5880 5878 5878 5877 5876 5875 5875 5874 5873 5872 5871 5871 5870 5869 5869 5868 5866 5865 5864 5863 5861 5860 5859 5858 5857 5856 5855 5854
5882 5882 5881 5880 5880 5880 5879 5878 5877 5876 5876 5874 5874 5872 5871 5870 5870 5869 5868 5867 5867 5866 5865 5865 5864 5863 5861 5860 5859 5858 5857 5855 5854 5853 5852 5851 5850 5850
5878 5877 5877 5876 5875 5875 5874 5874 5873 5872 5871 5870 5869 5868 5867 5866 5865 5864 5863 5862 5861 5861 5860 5859 5858 5857 5856 5855 5854 5853 5851 5850 5849 5848 5847 5846 5845 5844
5873 5872 5872 5871 5870 5870 5869 5869 5868 5867 5866 5865 5864 5863 5862 5861 5859 5858 5857 5856 5856 5855 5854 5853 5852 5851 5850 5849 5848 5847 5846 5844 5843 5842 5841 5841 5839 5839
5867 5866 5865 5865 5864 5864 5863 5863 5862 5861 5860 5859 5858 5857 5856 5855 5854 5853 5851 5850 5850 5849 5848 5847 5846 5845 5844 5842 5841 5840 5839 5838 5837 5836 5835 5834 5833 5833
5861 5860 5859 5859 5858 5858 5857 5856 5855 5854 5853 5853 5852 5851 5850 5848 5847 5846 5845 5844 5843 5842 5841 5840 5839 5838 5837 5835 5834 5833 5832 5832 5831 5829 5828 5828 5827 5826
5854 5854 5853 5852 5851 5850 5850 5849 5848 5847 5846 5846 5845 5844 5843 5842 5841 5840 5838 5837 5836 5835 5834 5833 5832 5831 5830 5828 5827 5826 5825 5824 5823 5822 5821 5821 5820 5819
5847 5846 5846 5845 5843 5842 5842 5841 5840 5839 5839 5838 5837 5836 5836 5834 5833 5832 5831 5830 5829 5828 5826 5825 5824 5823 5821 5820 5819 5818 5817 5816 5815 5814 5814 5813 5812 5812
5839 5838 5838 5837 5835 5834 5834 5833 5832 5831 5830 5830 5829 5828 5827 5826 5825 5824 5822 5821 5820 5819 5818 5817 5815 5814 5813 5811 5810 5809 5808 5807 5806 5805 5805 5804 5804 5804
5830 5829 5828 5828 5826 5825 5824 5823 5823 5822 5821 5820 5820 5819 5818 5817 5815 5814 5813 5812 5811 5810 5808 5807 5806 5805 5804 5803 5801 5800 5799 5798 5797 5796 5795 5795 5795 5795
5821 5820 5819 5818 5817 5815 5814 5814 5813 5812 5811 5810 5810 5809 5808 5807 5805 5804 5803 5802 5802 5801 5799 5798 5797 5796 5795 5794 5792 5791 5789 5788 5787 5787 5786 5785 5785 5785
5812 5810 5809 5808 5807 5805 5804 5803 5803 5802 5801 5800 5799 5798 5797 5796 5795 5794 5793 5791 5790 5790 5789 5788 5787 5785 5785 5785 5783 5781 5780 5779 5778 5777 5776 5776 5775 5774
5802 5801 5800 5798 5797 5795 5794 5793 5792 5791 5790 5789 5788 5788 5787 5786 5784 5783 5781 5780 5779 5779 5778 5777 5776 5775 5774 5774 5774 5772 5771 5770 5769 5767 5766 5765 5765 5764
5792 5791 5789 5788 5786 5784 5783 5782 5781 5779 5779 5778 5777 5777 5776 5775 5774 5772 5771 5769 5768 5767 5767 5765 5765 5765 5764 5763 5763 5762 5761 5760 5759 5758 5757 5756 5755 5754
5781 5780 5779 5777 5775 5774 5772 5770 5769 5767 5766 5766 5766 5766 5765 5763 5762 5761 5759 5758 5757 5756 5755 5754 5754 5754 5753 5752 5752 5752 5751 5750 5749 5748 5747 5746 5745 5744
5770 5769 5768 5766 5765 5763 5761 5759 5757 5756 5755 5755 5754 5754 5753 5752 5751 5750 5749 5748 5747 5746 5745 5743 5743 5742 5742 5742 5741 5741 5740 5740 5739 5738 5737 5736 5735 5734
5759 5758 5757 5756 5754 5753 5751 5749 5747 5746 5745 5744 5743 5743 5742 5741 5740 5739 5738 5737 5736 5736 5735 5734 5732 5731 5731 5731 5730 5730 5730 5729 5728 5727 5727 5726 5726 5725
5747 5747 5746 5744 5743 5742 5741 5739 5738 5736 5735 5734 5733 5732 5731 5730 5729 5728 5727 5726 5725 5725 5724 5724 5723 5722 5721 5720 5720 5720 5719 5719 5718 5717 5717 5716 5716 5715
5736 5735 5734 5733 5732 5731 5730 5729 5728 5726 5725 5723 5722 5721 5720 5719 5718 5717 5717 5715 5714 5713 5713 5712 5712 5711 5711 5711 5710 5709 5709 5709 5708 5707 5706 5706 5705 5705
5725 5724 5723 5722 5721 5720 5719 5718 5717 5716 5714 5713 5712 5710 5709 5708 5707 5707 5706 5705 5704 5703 5702 5702 5701 5701 5701 5701 5700 5699 5698 5698 5697 5697 5696 5695 5695 5694
5714 5713 5712 5711 5711 5710 5709 5708 5706 5705 5704 5702 5701 5700 5698 5697 5696 5696 5695 5694 5693 5692 5692 5692 5691 5691 5690 5690 5689 5689 5689 5688 5688 5687 5686 5685 5685 5684
5703 5703 5702 5701 5700 5699 5698 5697 5695 5694 5693 5691 5690 5689 5688 5686 5685 5685 5684 5683 5682 5682 5682 5681 5681 5680 5679 5679 5679 5679 5679 5679 5678 5677 5676 5676 5675 5675
5693 5692 5691 5691 5690 5688 5687 5686 5684 5683 5682 5681 5680 5678 5677 5676 5675 5674 5673 5672 5672 5672 5671 5671 5671 5670 5669 5669 5670 5669 5669 5669 5668 5668 5668 5667 5666 5666